Weather History for Morristown, NJ

Change the Weather History Date:

Friday, June 14, 2013

  Actual Average Record
Temperature  
Mean Temperature 63 °F -  
Max Temperature 73 °F 78 °F 95 °F (1961)
Min Temperature 53 °F 54 °F 40 °F (1970)
Degree Days  
Heating Degree Days 2    
Growing Degree Days 13 (Base 50)    
Moisture  
Dew Point 53 °F    
Average Humidity 80    
Maximum Humidity 94    
Minimum Humidity 53    
Precipitation  
Precipitation 0.04 in - - ()
Sea Level Pressure  
Sea Level Pressure 29.73 in    
Wind  
Wind Speed 8 mph (North)    
Max Wind Speed 14 mph    
Max Gust Speed 20 mph    
Visibility 10 miles    
Events Rain , Thunderstorm    
Averages and records for this station are not official NWS values.
T = Trace of Precipitation, MM = Missing Value Source: NWS Daily Summary

Daily Weather History Graph

Daily Weather History Graph

Search for Another Location

Airport:

Trip Planner

Search our weather history database for the weather conditions in past years. The results will help you decide how hot, cold, wet, or windy it might be!

Date:

Astronomy

Jun. 14, 2013 Rise Set
Actual Time 5:25 AM EDT 8:30 PM EDT
Civil Twilight 4:52 AM EDT 9:04 PM EDT
Nautical Twilight 4:09 AM EDT 9:46 PM EDT
Astronomical Twilight 3:19 AM EDT 10:36 PM EDT
Moon 11:00 AM EDT (6/14) No Moon Set
Length of Visible Light 16h 11m
Length of Day
15h 05m
Waxing Crescent, 30% of the Moon is Illuminated
Jun 14
Waxing Crescent
Jun 16
First Quarter
Jun 23
Full
Jun 30
Last Quarter
Jul 8
New

Hourly Weather History & Observations

Time (EDT) Temp. Dew Point Humidity Pressure Visibility Wind Dir Wind Speed Gust Speed Precip Events Conditions
12:15 AM 57.2 °F 53.6 °F 88% 29.56 in 7.0 mi North 12.7 mph 17.3 mph 0.01 in Rain Rain
12:35 AM 57.2 °F 53.6 °F 88% 29.57 in 7.0 mi North 10.4 mph 16.1 mph 0.01 in Rain Rain
12:55 AM 57.2 °F 53.6 °F 88% 29.58 in 7.0 mi NNE 9.2 mph - N/A Rain Light Rain
1:15 AM 57.2 °F 53.6 °F 88% 29.59 in 10.0 mi NNE 11.5 mph 19.6 mph N/A Rain Light Rain
1:35 AM 57.2 °F 53.6 °F 88% 29.60 in 10.0 mi NNE 12.7 mph 17.3 mph N/A Rain Light Rain
1:55 AM 57.2 °F 53.6 °F 88% 29.61 in 10.0 mi North 9.2 mph - N/A Rain Rain
2:15 AM 57.2 °F 53.6 °F 88% 29.61 in 10.0 mi NNE 8.1 mph - 0.01 in Rain Light Rain
2:35 AM 57.2 °F 53.6 °F 88% 29.61 in 10.0 mi North 9.2 mph - 0.01 in Rain Light Rain
2:55 AM 57.2 °F 53.6 °F 88% 29.61 in 10.0 mi NNE 8.1 mph - N/A Rain Rain
3:15 AM 57.2 °F 53.6 °F 88% 29.62 in 10.0 mi North 6.9 mph - N/A Rain Light Rain
3:35 AM 57.2 °F 51.8 °F 82% 29.64 in 10.0 mi North 9.2 mph 16.1 mph 0.01 in Rain Light Rain
3:55 AM 57.2 °F 51.8 °F 82% 29.64 in 10.0 mi North 8.1 mph - N/A Rain Light Rain
4:15 AM 57.2 °F 51.8 °F 82% 29.65 in 10.0 mi North 5.8 mph - N/A   Drizzle
4:35 AM 57.2 °F 51.8 °F 82% 29.65 in 10.0 mi North 5.8 mph - N/A   Overcast
4:55 AM 57.2 °F 51.8 °F 82% 29.67 in 10.0 mi North 9.2 mph - N/A   Overcast
5:15 AM 55.4 °F 50.0 °F 82% 29.67 in 10.0 mi North 9.2 mph - N/A   Overcast
5:35 AM 55.4 °F 50.0 °F 82% 29.68 in 10.0 mi North 9.2 mph - 0.01 in   Overcast
5:55 AM 55.4 °F 50.0 °F 82% 29.69 in 10.0 mi North 11.5 mph 18.4 mph N/A   Overcast
6:15 AM 57.2 °F 50.0 °F 77% 29.70 in 10.0 mi NNE 8.1 mph - N/A   Overcast
6:35 AM 57.2 °F 50.0 °F 77% 29.70 in 10.0 mi North 11.5 mph 17.3 mph N/A   Overcast
6:45 AM 53.6 °F 50.0 °F 88% 29.71 in 10.0 mi NNE 10.4 mph 18.4 mph N/A   Overcast
8:45 AM 57.2 °F 50.0 °F 77% 29.76 in 10.0 mi North 13.8 mph 18.4 mph N/A   Overcast
9:45 AM 59.0 °F 50.0 °F 72% 29.79 in 10.0 mi NNW 6.9 mph 16.1 mph N/A   Overcast
10:45 AM 60.8 °F 50.0 °F 68% 29.81 in 10.0 mi North 5.8 mph - N/A   Mostly Cloudy
11:45 AM 62.6 °F 50.0 °F 63% 29.81 in 10.0 mi North 10.4 mph - N/A   Mostly Cloudy
12:45 PM 68.0 °F 53.6 °F 60% 29.80 in 10.0 mi WNW 5.8 mph - N/A   Mostly Cloudy
1:45 PM 69.8 °F 55.4 °F 60% 29.80 in 10.0 mi Calm Calm - N/A   Mostly Cloudy
2:45 PM 71.6 °F 53.6 °F 53% 29.78 in 10.0 mi Calm Calm - N/A   Mostly Cloudy
3:45 PM 73.4 °F 57.2 °F 57% 29.78 in 10.0 mi SE 5.8 mph - N/A   Scattered Clouds
4:45 PM 69.8 °F 57.2 °F 64% 29.81 in 10.0 mi Calm Calm - N/A   Overcast
5:00 PM 68.0 °F 55.4 °F 64% 29.81 in 10.0 mi NNW 8.1 mph - N/A Thunderstorm Thunderstorm
5:50 PM 64.4 °F 55.4 °F 73% 29.84 in 10.0 mi NW 8.1 mph - N/A   Mostly Cloudy
6:45 PM 62.6 °F 57.2 °F 82% 29.83 in 10.0 mi WNW 3.5 mph - N/A   Mostly Cloudy
7:45 PM 62.6 °F 57.2 °F 82% 29.85 in 10.0 mi NW 3.5 mph - N/A   Mostly Cloudy
8:45 PM 59.0 °F 57.2 °F 94% 29.86 in 10.0 mi Calm Calm - N/A   Mostly Cloudy
9:45 PM 57.2 °F 55.4 °F 94% 29.89 in 10.0 mi Calm Calm - N/A   Clear
10:55 PM 59.0 °F 55.4 °F 88% 29.89 in 7.0 mi Calm Calm - N/A   Clear
11:15 PM 60.8 °F 57.2 °F 88% 29.90 in 10.0 mi Calm Calm - 0.01 in   Clear
11:35 PM 59.0 °F 57.2 °F 94% 29.90 in 10.0 mi Calm Calm - 0.01 in   Clear
11:55 PM 59.0 °F 55.4 °F 88% 29.90 in 10.0 mi Calm Calm - N/A   Clear